[[{"header":{"parameterUnit":"m.s-1","parameterCategory":1,"la1":30.2991,"la2":30.254,"lo1":-89.0895,"lo2":-89.0444,"dy":0.0017,"dx":0.0017,"nx":28,"ny":28,"refTime":"2024-05-09T09:00:00:Z","depth":0,"parameterNumber":2,"parameterNumberName":"U-component_of_WINDS"},"data":[0,0,0,0,0,0,0,0,0,0,0,0,0,0,0,0,0,0,0,0,0,0,0,0,0,0,0,0,0,0,0,0,0,0,0,0,0,0,0,0,0,0,0,0,0,0,0,0,0,0,0,0,0,0,0,0,0,0,-3.4366,-3.4367,0,-3.4408,-3.4408,-3.4408,-3.4399,-3.4398,-3.4398,-3.4397,-3.4438,-3.4439,-3.4441,0,0,0,0,0,0,0,0,0,0,0,0,0,-3.4279,-3.428,-3.4366,-3.4367,-3.4367,-3.4407,-3.4408,-3.4409,-3.4399,-3.4398,-3.4397,-3.4396,-3.4437,-3.4439,-3.4441,0,0,0,0,0,0,0,0,0,0,0,0,0,-3.4318,-3.4281,-3.4366,-3.4367,-3.4368,-3.4407,-3.4408,-3.4409,-3.4399,-3.4398,-3.4397,-3.4396,-3.4436,-3.4439,-3.4442,-3.4482,0,0,-3.445,-3.4451,0,0,0,0,0,0,0,0,-3.4316,-3.4321,-3.4367,-3.4367,-3.4368,-3.4397,-3.4392,-3.4433,-3.44,-3.4387,-3.4397,-3.4395,-3.4425,-3.4429,-3.4439,-3.4484,-3.4485,-3.445,-3.4452,-3.4453,-3.4454,0,0,0,0,0,0,0,-3.4313,-3.4319,-3.4383,-3.4367,-3.4368,-3.4366,-3.437,-3.44,-3.4412,-3.4388,-3.4388,-3.4393,-3.4425,-3.4436,-3.444,-3.4486,-3.445,-3.4453,-3.4454,-3.4455,-3.4566,-3.4567,0,0,0,0,0,0,-3.431,-3.4317,-3.4381,-3.4384,-3.4339,-3.4368,-3.4373,-3.4389,-3.4412,-3.4414,-3.4394,-3.4392,-3.4432,-3.4437,-3.4441,-3.4489,-3.4453,-3.4456,-3.4457,-3.4565,-3.4566,-3.4568,0,0,0,0,0,0,-3.4308,-3.4316,-3.438,-3.435,-3.4358,-3.4371,-3.4389,-3.439,-3.4401,-3.4416,-3.4418,-3.4403,-3.4431,-3.4437,-3.4472,-3.449,-3.4457,-3.4459,-3.4563,-3.4565,-3.4567,-3.4585,0,0,0,0,0,0,-3.4305,-3.4315,-3.433,-3.4351,-3.436,-3.441,-3.439,-3.4392,-3.4406,-3.4405,-3.4425,-3.4427,-3.4431,-3.4468,-3.4475,-3.4493,-3.4461,-3.4561,-3.4564,-3.4566,-3.4583,-3.4587,-3.4591,0,0,0,0,0,-3.4302,-3.4334,-3.4331,-3.4339,-3.4379,-3.4411,-3.4416,-3.442,-3.4408,-3.4423,-3.4433,-3.4427,-3.4488,-3.4471,-3.4479,-3.4499,-3.456,-3.4563,-3.4566,-3.4581,-3.4586,-3.4591,0,0,0,0,0,0,-3.4314,-3.4336,-3.4334,-3.4373,-3.439,-3.4409,-3.4428,-3.4426,-3.4446,-3.4444,-3.4448,-3.4452,-3.4487,-3.4497,-3.4478,-3.4539,-3.4522,-3.4527,-3.4531,-3.4536,-3.454,-3.4536,-3.4464,0,0,0,0,0,-3.4321,-3.4345,-3.4363,-3.4396,-3.4405,-3.4415,-3.4429,-3.4431,-3.4449,-3.4456,-3.4468,-3.4485,-3.4508,-3.4523,-3.4545,-3.4585,-3.4589,-3.4603,-3.4607,-3.461,-3.4613,-3.4634,-3.464,-3.4577,-3.4577,-3.4577,0,0,-3.4336,-3.4351,-3.4366,-3.4399,-3.4412,-3.4436,-3.4421,-3.4448,-3.4465,-3.446,-3.4493,-3.4503,-3.4522,-3.4559,-3.4576,-3.4568,-3.4632,-3.4614,-3.4617,-3.4618,-3.4638,-3.4644,-3.4649,-3.4579,-3.4579,-3.4579,0,0,-3.4375,-3.439,-3.4418,-3.4432,-3.4453,-3.4461,-3.4468,-3.4488,-3.4494,-3.4528,-3.4524,-3.4545,-3.4585,-3.4599,-3.4611,-3.4658,-3.4652,-3.4665,-3.4686,-3.4707,-3.4711,-3.4716,-3.4731,-3.4737,-3.4669,-3.4669,-3.4669,0,-3.439,-3.4427,-3.4432,-3.4459,-3.4473,-3.4471,-3.4499,-3.4513,-3.454,-3.455,-3.4541,-3.4591,-3.4604,-3.4644,-3.4656,-3.4666,-3.4674,-3.4661,-3.4711,-3.4715,-3.4719,-3.4734,-3.4739,-3.467,-3.467,-3.467,-3.4669,0,-3.4444,-3.447,-3.449,-3.4517,-3.4534,-3.4562,-3.4571,-3.4588,-3.4589,-3.4597,-3.4631,-3.4647,-3.4672,-3.4682,-3.4683,-3.4723,-3.4717,-3.471,-3.4692,-3.4726,-3.474,-3.4745,-3.4672,-3.4671,-3.4671,-3.467,0,0,-3.4489,-3.452,-3.4527,-3.4539,-3.4563,-3.4583,-3.4611,-3.4636,-3.465,-3.4669,-3.4692,-3.4727,-3.472,-3.4734,-3.4737,-3.4756,-3.479,-3.4746,-3.4746,-3.4752,-3.4833,-3.4837,-3.4843,-3.4788,-3.4789,-3.479,-3.4831,0,-3.4529,-3.4577,-3.4584,-3.4627,-3.465,-3.4649,-3.4673,-3.4691,-3.47,-3.4721,-3.473,-3.4754,-3.4744,-3.4753,-3.4771,-3.4782,-3.4806,-3.4779,-3.4807,-3.4808,-3.48,-3.4851,-3.4855,-3.4893,-3.4836,-3.4837,-3.4838,0,-3.4581,-3.4602,-3.4648,-3.4669,-3.4679,-3.4701,-3.4724,-3.4745,-3.4765,-3.477,-3.4787,-3.4788,-3.4816,-3.48,-3.4839,-3.482,-3.4833,-3.484,-3.4842,-3.4842,-3.4823,-3.4851,-3.4905,-3.491,-3.4847,-3.4846,-3.4845,0,-3.4607,-3.4648,-3.468,-3.4691,-3.4717,-3.4732,-3.4743,-3.4762,-3.4777,-3.4798,-3.4808,-3.4832,-3.4845,-3.4863,-3.4871,-3.4858,-3.4909,-3.4893,-3.4913,-3.4913,-3.4921,-3.492,-3.4976,-3.4933,-3.4933,-3.4933,-3.4933,0,-3.4649,-3.4677,-3.4692,-3.4711,-3.4742,-3.475,-3.478,-3.4791,-3.4809,-3.483,-3.4831,-3.4851,-3.4861,-3.4883,-3.4889,-3.4919,-3.4926,-3.493,-3.4931,-3.4929,-3.4928,-3.4935,-3.4932,-3.4934,-3.4934,-3.4934,-3.4934,0,-3.4683,-3.4694,-3.4729,-3.4751,-3.4758,-3.4779,-3.4798,-3.4817,-3.4827,-3.4854,-3.4861,-3.4876,-3.4901,-3.4911,-3.4943,-3.4947,-3.4982,-3.4982,-3.4975,-3.4974,-3.4993,-3.499,-3.5053,-3.5061,-3.5015,-3.5015,-3.5016,0,-3.4708,-3.4729,-3.4754,-3.4769,-3.4781,-3.4805,-3.482,-3.4829,-3.4845,-3.487,-3.4886,-3.4912,-3.4932,-3.4974,-3.4987,-3.5011,-3.501,-3.5031,-3.5013,-3.501,-3.5008,-3.5006,-3.5008,-3.5033,-3.5033,-3.5034,-3.5034,0,-3.475,-3.4755,-3.4778,-3.4803,-3.4821,-3.4841,-3.486,-3.4872,-3.4884,-3.4902,-3.4929,-3.4945,-3.4978,-3.5003,-3.5028,-3.504,-3.5038,-3.504,-3.5045,-3.5042,-3.5036,-3.5038,-3.4981,-3.5038,-3.5037,-3.5037,-3.5037,-3.5037,-3.4779,-3.4798,-3.4818,-3.4843,-3.4859,-3.4877,-3.4896,-3.4909,-3.4931,-3.4958,-3.4963,-3.4991,-3.5011,-3.5044,-3.5057,-3.5079,-3.5074,-3.5082,-3.5084,-3.5085,-3.5085,-3.5035,-3.5084,-3.5084,-3.5084,-3.5084,-3.5084,0,-3.4821,-3.4834,-3.4857,-3.4885,-3.4904,-3.4904,-3.4925,-3.4941,-3.4966,-3.4985,-3.5006,-3.5037,-3.5062,-3.5078,-3.5103,-3.5117,-3.5117,-3.5123,-3.5121,-3.5123,-3.509,-3.5082,-3.5122,-3.5122,-3.5122,-3.5122,-3.5122,-3.5122,-3.4844,-3.4876,-3.4883,-3.4922,-3.4936,-3.4964,-3.4976,-3.4993,-3.5008,-3.5042,-3.5063,-3.5073,-3.5091,-3.5118,-3.5141,-3.5145,-3.5153,-3.5159,-3.5162,-3.513,-3.5126,-3.5122,-3.5114,-3.5161,-3.5161,-3.5194,-3.5194,-3.5194]},{"header":{"parameterUnit":"m.s-1","parameterCategory":1,"la1":30.2991,"la2":30.254,"lo1":-89.0895,"lo2":-89.0444,"dy":0.0017,"dx":0.0017,"nx":28,"ny":28,"refTime":"2024-05-09T09:00:00:Z","depth":0,"parameterNumber":3,"parameterNumberName":"V-component_of_WINDS"},"data":[0,0,0,0,0,0,0,0,0,0,0,0,0,0,0,0,0,0,0,0,0,0,0,0,0,0,0,0,0,0,0,0,0,0,0,0,0,0,0,0,0,0,0,0,0,0,0,0,0,0,0,0,0,0,0,0,0,0,4.4153,4.4155,0,4.4335,4.4337,4.4339,4.4362,4.436,4.4358,4.4357,4.4542,4.4548,4.4555,0,0,0,0,0,0,0,0,0,0,0,0,0,4.3827,4.3833,4.4153,4.4155,4.4158,4.4334,4.4337,4.4339,4.4362,4.436,4.4358,4.4356,4.454,4.4547,4.4555,0,0,0,0,0,0,0,0,0,0,0,0,0,4.3984,4.3834,4.4153,4.419,4.4195,4.4334,4.4337,4.434,4.4362,4.436,4.4357,4.4355,4.4537,4.4547,4.4556,4.467,0,0,4.4586,4.4591,0,0,0,0,0,0,0,0,4.3975,4.3996,4.4183,4.4188,4.4194,4.4323,4.429,4.4451,4.4363,4.4299,4.4356,4.4353,4.4471,4.4486,4.4526,4.4678,4.4686,4.4587,4.4593,4.4597,4.46,0,0,0,0,0,0,0,4.3964,4.3989,4.4225,4.4185,4.4192,4.4198,4.4218,4.432,4.4398,4.4304,4.4306,4.4328,4.4474,4.4516,4.453,4.4689,4.4587,4.4596,4.4602,4.4606,4.4946,4.4949,0,0,0,0,0,0,4.3947,4.3979,4.4219,4.423,4.4076,4.4206,4.4228,4.4284,4.4397,4.4411,4.433,4.4328,4.4501,4.4519,4.4537,4.4679,4.4597,4.4607,4.4612,4.4943,4.4947,4.495,0,0,0,0,0,0,4.3939,4.3968,4.4212,4.4106,4.4137,4.4215,4.4278,4.4289,4.4332,4.4416,4.443,4.4359,4.45,4.4523,4.4637,4.4686,4.4611,4.462,4.4939,4.4944,4.4948,4.4963,0,0,0,0,0,0,4.393,4.3965,4.4009,4.4106,4.4143,4.4309,4.4281,4.4295,4.4349,4.4349,4.4447,4.4461,4.4499,4.4622,4.4647,4.4698,4.4628,4.4935,4.4941,4.4947,4.4958,4.4967,4.4975,0,0,0,0,0,4.3918,4.4005,4.4011,4.404,4.4199,4.4312,4.4333,4.4375,4.4353,4.4398,4.4452,4.4458,4.4676,4.4634,4.4662,4.4716,4.4932,4.494,4.4946,4.4954,4.4965,4.4975,0,0,0,0,0,0,4.3911,4.4018,4.4026,4.4147,4.422,4.4315,4.4373,4.4385,4.4466,4.4462,4.4511,4.4533,4.4646,4.4692,4.4643,4.4833,4.4802,4.4815,4.4799,4.481,4.4818,4.4805,4.4636,0,0,0,0,0,4.3923,4.4006,4.4095,4.4193,4.423,4.4295,4.4346,4.4372,4.445,4.4481,4.4543,4.4618,4.4704,4.4759,4.4842,4.4965,4.4987,4.5016,4.5024,4.5031,4.5042,4.5112,4.5126,4.4973,4.4973,4.4973,0,0,4.395,4.4019,4.4068,4.4194,4.4253,4.4338,4.4321,4.4411,4.4475,4.4494,4.4607,4.4655,4.4742,4.4861,4.4916,4.4903,4.5089,4.504,4.5044,4.5052,4.512,4.5135,4.5148,4.4978,4.4977,4.4976,0,0,4.4042,4.4101,4.4191,4.4251,4.4342,4.4385,4.4407,4.4501,4.4534,4.4647,4.4664,4.474,4.4886,4.4948,4.4999,4.5115,4.5125,4.5141,4.5185,4.5253,4.5265,4.5276,4.5319,4.5334,4.5151,4.5151,4.5152,0,4.4063,4.4192,4.4235,4.4326,4.4381,4.4403,4.4495,4.4551,4.4664,4.4702,4.4686,4.4871,4.4931,4.5065,4.5094,4.5133,4.516,4.5131,4.526,4.5271,4.5282,4.5324,4.534,4.5153,4.5153,4.5153,4.5153,0,4.4215,4.4304,4.4365,4.4475,4.4537,4.4627,4.4684,4.4742,4.4763,4.4808,4.4924,4.4997,4.5096,4.513,4.5151,4.5268,4.5257,4.5249,4.522,4.5297,4.5338,4.5354,4.5155,4.5155,4.5154,4.5154,0,0,4.4308,4.4441,4.4463,4.4514,4.4616,4.4686,4.4777,4.4875,4.4924,4.5001,4.508,4.5204,4.5198,4.5255,4.5283,4.5342,4.5432,4.5328,4.5331,4.5346,4.5567,4.5574,4.5591,4.5438,4.5441,4.5444,4.5561,0,4.4413,4.4577,4.4619,4.4759,4.4843,4.4865,4.4945,4.5017,4.5061,4.5139,4.5188,4.5275,4.526,4.5295,4.5354,4.5409,4.5477,4.54,4.5513,4.5516,4.5492,4.5612,4.5619,4.5726,4.5576,4.5579,4.5581,0,4.4558,4.4639,4.4788,4.4881,4.4917,4.4988,4.5082,4.5155,4.5237,4.5266,4.533,4.5353,4.545,4.5414,4.5548,4.5495,4.5543,4.5577,4.5582,4.5596,4.5554,4.563,4.5761,4.5777,4.5606,4.5604,4.5602,0,4.4613,4.476,4.4868,4.491,4.5021,4.5071,4.5119,4.5198,4.5255,4.5336,4.5374,4.5465,4.5515,4.5586,4.5633,4.5602,4.5764,4.5732,4.5791,4.579,4.5825,4.5823,4.5967,4.5854,4.5853,4.5853,4.5853,0,4.4727,4.4818,4.4895,4.4961,4.5064,4.5111,4.5211,4.526,4.533,4.5407,4.5432,4.5503,4.5561,4.564,4.5678,4.5784,4.5806,4.5832,4.5842,4.5831,4.5828,4.5865,4.5859,4.5857,4.5856,4.5856,4.5855,0,4.4807,4.4862,4.4982,4.5077,4.5103,4.5174,4.5256,4.5321,4.5366,4.5464,4.5489,4.556,4.5655,4.5709,4.5828,4.5854,4.5973,4.5977,4.5946,4.595,4.6007,4.6001,4.6181,4.6207,4.6075,4.6076,4.6077,0,4.4877,4.4947,4.505,4.5104,4.5153,4.5239,4.5297,4.5346,4.5406,4.5505,4.5559,4.5656,4.5736,4.5887,4.5949,4.6041,4.6049,4.6105,4.6063,4.6051,4.6052,4.6047,4.6055,4.6113,4.6114,4.6115,4.6116,0,4.4996,4.502,4.5103,4.5196,4.5265,4.534,4.5415,4.5457,4.5519,4.5585,4.5683,4.5745,4.5867,4.5963,4.606,4.611,4.6124,4.6129,4.6148,4.6139,4.6118,4.6131,4.5967,4.6125,4.6124,4.6123,4.6123,4.6122,4.5075,4.5139,4.5222,4.5314,4.5375,4.5445,4.5512,4.5566,4.5648,4.5752,4.5776,4.588,4.596,4.6092,4.6145,4.6226,4.6216,4.6243,4.625,4.6256,4.6259,4.6103,4.6244,4.6244,4.6243,4.6243,4.6243,0,4.5197,4.5252,4.5336,4.544,4.5512,4.5519,4.5602,4.5662,4.5753,4.5828,4.5906,4.6019,4.6113,4.6182,4.6278,4.633,4.6339,4.6354,4.6351,4.6363,4.6262,4.6237,4.6345,4.6345,4.6345,4.6345,4.6345,4.6345,4.527,4.5379,4.5413,4.5553,4.5607,4.5709,4.5756,4.5821,4.5881,4.6006,4.6084,4.6129,4.6202,4.6303,4.6389,4.6407,4.6442,4.6456,4.6475,4.638,4.6369,4.6359,4.6336,4.6463,4.6463,4.6569,4.657,4.6571]}]]